Zurück zum Katalog

STARLINK-37223

AktivKommunikationSSO
NORAD 68387·PAYLOAD·🇺🇸 United States

Gestartet Mar 26, 2026 von Vandenberg Space Force Base

Loading…

Nächste Überflüge (nächste 24 Stunden)

TLE

AktuellSource: CelesTrak SupGP

Epoche: Sep 15, 2026, 04:17 UTC

1 68387C 26063H   26258.17895833  .00014472  00000+0  44936-3 0  2580
2 68387  97.2858  39.1159 0001052  80.3659 266.9719 15.33424243    12

Verfolge STARLINK-37223 in Echtzeit mit AllMySat

Download on the App Store